User: anonymous   Login
Location: Boca do Mato
(22.9085°S, 43.2930°W)
Time: 16:39:51
(UTC+00:00)
Language:

Cosmos 1340 Rocket - Orbit

View from above orbital plane
View from above orbital plane
View from above satellite
View from above satellite

Ground track
Ground track

The orbit data is extracted from the following two-line orbital elements,

1 13068U 82013B   20270.91698583 -.00000262 +00000-0 -18747-4 0  9995
2 13068 081.2007 294.4797 0020203 323.9272 036.0587 15.07472011103657
Epoch (UTC): 26 September 2020 22:00:27
Eccentricity: 0.0020203
inclination: 81.2007°
perigee height: 530 km
apogee height: 558 km
right ascension of ascending node: 294.4797°
argument of perigee: 323.9272°
revolutions per day: 15.07472011
mean anomaly at epoch: 36.0587°
orbit number at epoch: 10365

The dashed part of the orbit path shows where the satellite is in the earth's shadow,  

DLR